This is the latest recevied weather packets stored in our database for station/object W1MDM-10. If no packets are shown the sender has not sent any weather packets the latest 10 day(s).
| Time | Temp. | Humidity | Pressure | Rain* | Wind** | Luminosity | Snow |
|---|---|---|---|---|---|---|---|
| 1787880046 | 25° C | 87% | 1013 hPa | 0.25 mm | - | - | - |
| 1787879746 | 25.56° C | 86% | 1013.1 hPa | 0.25 mm | - | - | - |
| 1787879446 | 25° C | 87% | 1012.8 hPa | 0.51 mm | - | - | - |
| 1787879146 | 25° C | 87% | 1012.9 hPa | 0.51 mm | - | - | - |
| 1787878846 | 25° C | 87% | 1012.6 hPa | 0.51 mm | - | - | - |
| 1787878546 | 25.56° C | 86% | 1012.6 hPa | 0.51 mm | - | - | - |
| 1787878246 | 25.56° C | 86% | 1012.8 hPa | 0.51 mm | - | - | - |
| 1787877946 | 25.56° C | 86% | 1012.3 hPa | 0.51 mm | - | - | - |
| 1787877646 | 26.11° C | 86% | 1012.6 hPa | 0.51 mm | - | - | - |
| 1787877346 | 26.11° C | 83% | 1011.7 hPa | 0.51 mm | - | - | - |
| 1787877046 | 26.67° C | 83% | 1011.6 hPa | 0.25 mm | - | - | - |
| 1787876746 | 26.67° C | 82% | 1011.5 hPa | 0.25 mm | - | - | - |
| 1787876446 | 27.22° C | 81% | 1011.5 hPa | 0.25 mm | - | - | - |
| 1787876146 | 27.78° C | 82% | 1011 hPa | 0.25 mm | - | - | - |
| 1787875846 | 27.78° C | 79% | 1011 hPa | 0 mm | - | - | - |
| 1787875546 | 27.78° C | 76% | 1011.1 hPa | 0 mm | - | - | - |
| 1787875246 | 27.78° C | 76% | 1011.1 hPa | 0 mm | - | - | - |
| 1787874946 | 27.78° C | 77% | 1011.2 hPa | 0 mm | - | - | - |
| 1787874647 | 27.78° C | 77% | 1011.4 hPa | 0 mm | - | - | - |
| 1787874346 | 28.33° C | 77% | 1011.5 hPa | 0 mm | - | - | - |
| 1787874046 | 28.33° C | 78% | 1011.5 hPa | 0 mm | - | - | - |
| 1787873746 | 28.33° C | 78% | 1011.6 hPa | 0 mm | - | - | - |
| 1787873446 | 28.89° C | 79% | 1011.4 hPa | 0 mm | - | - | - |
| 1787873146 | 28.89° C | 79% | 1011.4 hPa | 0 mm | - | - | - |
| 1787872846 | 29.44° C | 82% | 1011.3 hPa | 0 mm | - | - | - |
* Rain latest hour (hover to see other rain measurements)
** Current wind speed in m/s (hover to see current wind gust speed)